Home > Weather > Maintal > Past weeks

Flag for Germany Past Weather in Maintal, Hesse, Germany — Yesterday and Last 2 Weeks

Now
75 °F

Passing clouds.


Feels Like: 77 °F
Forecast: 56 / 72 °F
Wind: 12 mph from Southwest

Location: Frankfurt-M-Flughafen Airport

Current Time: Jun 29, 2016 at 6:36:26 PM

Latest Report: Jun 29, 2016 at 5:50 PM


Visibility: N/A

Pressure: 29.92 "Hg

Humidity: 39%

Dew Point: 48 °F

Location of MaintalLocation

Past Weather in Maintal — Graph

°F

Maintal Temperature Yesterday

Maximum temperature yesterday: 72 °F (at 3:20 PM)
Minimum temperature yesterday: 59 °F (at 2:20 AM)
Average temperature yesterday: 65 °F

High & Low Weather Summary for the Past Weeks

 TemperatureHumidityPressure
High93 °F (Jun 23, 4:50 PM)100% (Jun 14, 8:50 PM)30.27 "Hg (Jun 14, 8:50 PM)
Low45 °F (Jun 20, 4:50 AM)30% (Jun 23, 4:50 PM)29.53 "Hg (Jun 14, 5:20 PM)
Average64 °F78%29.98 "Hg
* Reported Jun 14 5:20 PM — Jun 29 5:20 PM, Maintal, Weather by CustomWeather, © 2016

Note: Actual official high and low records may vary slightly from our data, if they occured in-between our weather recording intervals... More about our weather records

Advertising

Maintal Weather History for the Previous 24 Hours

Scroll right to see more
 ConditionsComfort  
Time TempWeatherWind HumidityBarometerVisibility
5:20 PM
Wed, Jun 29
75 °FPassing clouds.13 mph39%29.92 "HgN/A
4:50 PM75 °FPassing clouds.13 mph36%29.92 "HgN/A
4:20 PM73 °FPassing clouds.13 mph38%29.92 "HgN/A
3:50 PM75 °FPassing clouds.12 mph39%29.95 "HgN/A
3:20 PM75 °FPassing clouds.15 mph39%29.95 "HgN/A
2:50 PM75 °FSunny.16 mph36%29.95 "Hg10 mi
2:20 PM73 °FSunny.16 mph36%29.95 "Hg10 mi
1:50 PM73 °FPassing clouds.16 mph38%29.95 "HgN/A
1:20 PM73 °FPassing clouds.17 mph44%29.95 "HgN/A
12:50 PM72 °FSunny.18 mph47%29.95 "Hg10 mi
12:20 PM72 °FBroken clouds.22 mph50%29.95 "HgN/A
11:50 AM72 °FBroken clouds.16 mph61%29.95 "HgN/A
11:20 AM70 °FScattered clouds.18 mph57%29.95 "HgN/A
10:20 AM68 °FScattered clouds.15 mph64%29.95 "HgN/A
9:50 AM70 °FScattered clouds.14 mph60%29.92 "HgN/A
9:20 AM68 °FScattered clouds.12 mph73%29.92 "HgN/A
8:50 AM66 °FPartly sunny.8 mph83%29.92 "HgN/A
8:20 AM66 °FPartly sunny.9 mph88%29.92 "HgN/A
7:20 AM63 °FPassing clouds.6 mph94%29.92 "HgN/A
6:50 AM63 °FScattered clouds.5 mph94%29.92 "HgN/A
6:20 AM63 °FBroken clouds.5 mph94%29.92 "HgN/A
5:50 AM63 °FPartly cloudy.3 mph94%29.92 "HgN/A
5:20 AM61 °FPartly cloudy.2 mph100%29.92 "HgN/A
4:50 AM63 °FPartly cloudy.5 mph94%29.92 "HgN/A
4:20 AM63 °FPartly cloudy.5 mph94%29.92 "HgN/A
3:50 AM63 °FLight rain. Partly cloudy.6 mph94%29.92 "HgN/A
3:20 AM63 °FLight rain. Partly cloudy.3 mph94%29.92 "HgN/A
2:50 AM63 °FPartly cloudy.5 mph94%29.92 "HgN/A
2:20 AM63 °FPassing clouds.3 mph94%29.92 "HgN/A
1:50 AM63 °FPassing clouds.6 mph94%29.92 "HgN/A
1:20 AM63 °FPartly cloudy.6 mph88%29.92 "HgN/A
12:50 AM64 °FPartly cloudy.6 mph83%29.95 "HgN/A
12:20 AM64 °FPartly cloudy.5 mph83%29.95 "HgN/A
11:50 PM
Tue, Jun 28
64 °FPartly cloudy.5 mph88%29.95 "HgN/A
11:20 PM64 °FPartly cloudy.8 mph88%29.95 "HgN/A
10:50 PM64 °FScattered showers. Partly cloudy.7 mph88%29.95 "HgN/A
10:20 PM66 °FPartly sunny.6 mph83%29.95 "HgN/A
9:50 PM66 °FPartly sunny.9 mph83%29.95 "HgN/A
9:20 PM68 °FPartly sunny.7 mph73%29.95 "HgN/A
8:50 PM68 °FPartly sunny.6 mph73%29.95 "HgN/A
8:20 PM70 °FPartly sunny.7 mph69%29.95 "HgN/A
7:50 PM70 °FPartly sunny.7 mph69%29.98 "HgN/A
7:20 PM72 °FBroken clouds.7 mph65%29.98 "HgN/A
6:50 PM72 °FBroken clouds.7 mph65%29.98 "HgN/A
6:20 PM70 °FScattered clouds.9 mph69%29.98 "HgN/A
Weather by CustomWeather, © 2016

See weather overviewHow to use our weather pages